{"data":{"norad_id":68925,"intl_designator":"2026-098G","name":"KUIPER-00409","alt_names":[],"object_type":"PAYLOAD","status":"ACTIVE","operator":null,"country":"US","launch_date":"2026-04-30","launch_site_code":"FRGUI","launch_vehicle":null,"mission":null,"orbit_class":"UNKNOWN","rcs_meters":null,"size_class":null,"mass_kg":null,"dimensions":null,"purposes":[],"wikipedia_slug":null,"has_3d_model":false,"image_url":null,"decayed_at":null,"tle_current":{"epoch":"2026-09-19T23:10:14.238048Z","epoch_age_seconds":61739,"freshness":"FRESH","line1":"1 68925U 26098G   26262.96544257  .00001998  00000+0  29107-3 0  9993","line2":"2 68925  51.9033 359.0622 0000486  95.8187 264.2831 14.79930486 21512","mean_motion":14.79930486,"eccentricity":4.86e-5,"inclination_deg":51.9033,"raan_deg":359.0622,"arg_perigee_deg":95.8187,"mean_anomaly_deg":264.2831,"bstar":0.00029107,"rev_number":2151,"period_min":97.301867460821,"perigee_km":629.20299198579,"apogee_km":629.88413853673,"semimajor_km":7007.6805652613,"source":"CELESTRAK","updated_at":"2026-09-20T09:00:24.554146Z"}}}